COSMOS 1275 DEB, 17620

Orbit data source: Space-Track

COSMOS 1275 DEB, 17620 is space debris in LEO originally from a launch on Thu, 04 Jun 1981 UTC launched from the Plesetsk Missile And Space Complex (PKMTR). Debris objects in space refer to the collection of defunct objects orbiting the Earth. Examples of debris include non-operational satellites, rocket bodies, and fragments generated from explosions, collisions, or faulty payload assembly.

Loading next visibility...
Identifier
17620, 1981-053KP
Orbit
LEO
Country
Flag of CISCIS
Related business
Manufacturer
Unknown
Mission
Spacecraft
Bus & Motor
Unknown
Mass
Unknown
Launch date (UTC)
1981-06-04 (45 years ago)
Launch vehicle
Unknown
Launch site
Plesetsk Missile And Space Complex (PKMTR)
Object type
Payload
Rocket body
Debris
Shape & HBR
Unknown shape, 0.1 m
Radar Cross Section
Medium (>0.1 m² and <1 m²)

Expand to show TLE details & history
Last TLE update: 9 hours ago

TLE from 9 hours ago
0 COSMOS 1275 DEB
1 17620U 81053KP  26255.10500014  .00003413  00000-0  10126-2 0  9997
2 17620  83.1704  35.3666 0018415 345.1907  14.8746 14.42995633126193
Epoch: 2026-09-12T02:31Z
TLE epoch observation values (Epoch: 2026-09-12T02:31:12.012Z)
Latitude
0.00004°
Longitude
6.44777°
Altitude
738.933 km
Speed
7.492 km/s
True Right ascension
02h 21m 27s
True Declination
0° 00' 00"
Sunlit
Object was in full shadow at epoch
Visualization orbit readout
Latitude
Unknown
Longitude
Unknown
Altitude
Unknown
Speed
Unknown
Apparent Right ascension
Unknown
Apparent Declination
Unknown
Sunlit
N/A
Visualization observer readout
Local Sidereal Time
03:49:04
Azimuth
Unknown
Elevation
Unknown
Doppler factor
Unknown
Orbital elements
Apogee altitude
758.783 km
Perigee altitude
732.546 km
Semi-major axis
7,123.802 km
Eccentricity
0.00184
Inclination
83.1704°
RAAN
35.3666°
Arg. of periapsis
345.1907°
True anomaly
14.92889°
Mean anomaly
14.8746°
Eccentric anomaly
14.90173°
Mean motion
3.60974 °/min
Orbital period
99.73 mins
BSTAR
0.0010126
Loading maneuver chart data...
Computing Atmospheric mass density...
Loading historical data...
Loading historical data...
Loading historical data...
Loading historical data...
Loading historical data...
Loading historical data...
Loading historical data...

Documentation

Showing up to 5 results
|